Weather reports worldwide

Advertisment
Freiburg, Germany (10803): temperature & dewpoint: 06.12.2018 00:00:00 - 12.12.2018 00:00:00 (CET)Freiburg, Germany (10803): temperature 5cm & temperature -5cm: 06.12.2018 00:00:00 - 12.12.2018 00:00:00 (CET)Freiburg, Germany (10803): temperature -20cm & temperature -100cm: 06.12.2018 00:00:00 - 12.12.2018 00:00:00 (CET)Freiburg, Germany (10803): wind speed & gusts: 06.12.2018 00:00:00 - 12.12.2018 00:00:00 (CET)Freiburg, Germany (10803): wind direction: 06.12.2018 00:00:00 - 12.12.2018 00:00:00 (CET)Freiburg, Germany (10803): reduced air pressure: 06.12.2018 00:00:00 - 12.12.2018 00:00:00 (CET)Freiburg, Germany (10803): visibility: 06.12.2018 00:00:00 - 12.12.2018 00:00:00 (CET)Freiburg, Germany (10803): sunshine duration: 06.12.2018 00:00:00 - 12.12.2018 00:00:00 (CET)Freiburg, Germany (10803): precipitation: 06.12.2018 00:00:00 - 12.12.2018 00:00:00 (CET)
Date & Time tt [°C] td [°C] tt 5cm [°C] tt -5cm [°C] tt -20cm [°C] tt -100cm [°C] ff [km/h] ff [kn] fx [km/h] fx [kn] dd ppp [hPa] vv [km] sd [min] rr [mm]
12.12.2018 00:00:00 -2,0 -2,9 -3,8 0,9 4,8 9,8 3 1 5 3 N 1025,8 32 0 0,0
11.12.2018 23:00:00 -1,0 -2,6 -3,0 1,0 5,0 9,8 0 0 13 7 N 1025,4 32 0 0,0
11.12.2018 22:00:00 0,8 -1,4 -1,5 1,6 5,2 9,8 4 2 8 4 S 1025,2 38 0 0,0
11.12.2018 21:00:00 2,5 -0,8 0,5 2,5 5,3 9,8 5 3 6 4 NNE 1025,5 45 0 0,0
11.12.2018 20:00:00 2,7 -0,9 1,4 2,9 5,5 9,8 4 2 8 5 NNE 1025,5 51 0 0,0
11.12.2018 19:00:00 2,4 -0,9 1,5 3,1 5,6 9,8 3 2 9 5 N 1025,5 58 0 0,0
11.12.2018 18:00:00 2,3 -0,9 1,4 3,3 5,7 9,8 2 1 7 4 SSE 1025,4 44 0 0,0
11.12.2018 17:00:00 3,9 -1,1 1,7 3,9 5,7 9,8 3 1 8 4 NE 1025,1 19 0 0,0
11.12.2018 16:00:00 4,7 -1,7 4,8 4,9 5,6 9,8 6 3 10 5 NE 1025,1 42 0 0,0
11.12.2018 15:00:00 5,1 -1,1 5,6 6,0 5,3 9,8 5 3 12 7 N 1025,2 63 7 0,0
11.12.2018 14:00:00 5,5 -2,4 9,2 6,6 4,9 9,8 8 4 14 7 NNW 1025,4 48 54 0,0
11.12.2018 13:00:00 5,0 -1,8 6,5 3,6 4,8 9,8 4 2 6 3 NNE 1025,9 47 26 0,0
11.12.2018 12:00:00 3,3 0,2 1,7 2,7 4,8 9,8 0 0 7 4 N 1026,6 28 2 0,0
11.12.2018 11:00:00 2,8 0,2 2,7 3,2 4,8 9,8 6 3 9 5 NW 1027,1 31 55 0,0
11.12.2018 10:00:00 1,9 0,8 3,3 1,2 5,0 9,9 4 2 6 4 N 1026,9 13 52 0,0
11.12.2018 09:00:00 0,3 0,0 -1,7 1,1 5,2 9,9 3 2 5 3 SW 1027,0 7 0 0,0
11.12.2018 08:00:00 -0,4 -0,7 -2,3 1,2 5,5 9,9 4 2 5 3 SW 1026,9 4,9 0 0,0
11.12.2018 07:00:00 0,5 0,1 -2,0 1,8 5,7 9,9 3 2 12 6 WNW 1026,8 3,9 0 0,0
11.12.2018 06:00:00 1,4 0,7 0,8 2,8 5,8 9,9 0 0 7 4 N 1026,7 10 0 0,0
11.12.2018 05:00:00 2,0 1,6 1,2 2,9 6,0 9,9 2 1 4 2 SW 1026,7 12 0 0,0
11.12.2018 04:00:00 2,2 1,4 0,9 3,2 6,2 9,9 2 1 4 2 N 1026,5 16 0 0,0
11.12.2018 03:00:00 2,6 1,9 0,3 3,5 6,3 9,9 3 2 5 3 SW 1026,4 19 0 0,0
11.12.2018 02:00:00 3,4 1,9 1,7 4,1 6,4 9,9 3 1 6 4 NNW 1026,2 45 0 0,0
11.12.2018 01:00:00 4,4 2,2 3,7 4,4 6,5 9,9 4 2 6 3 SSW 1026,1 62 0 0,0
11.12.2018 00:00:00 4,7 1,5 3,4 4,4 6,6 9,9 6 4 21 11 NNW 1026,2 70 0 0,0
10.12.2018 23:00:00 5,3 1,5 4,2 4,6 6,7 9,9 13 7 24 13 WNW 1026,1 13 0 0,0
10.12.2018 22:00:00 5,4 2,0 4,8 4,9 6,8 9,9 10 6 18 10 W 1025,7 50 0 0,0
10.12.2018 21:00:00 5,8 1,8 5,2 5,1 6,9 9,9 9 5 15 8 WSW 1026,1 48 0 0,0
10.12.2018 20:00:00 6,0 1,6 4,9 5,2 7,0 9,9 6 3 12 6 W 1025,8 49 0 0,0
10.12.2018 19:00:00 5,7 2,0 4,6 5,2 7,1 9,9 5 3 14 7 WSW 1025,9 43 0 0,0
10.12.2018 18:00:00 6,1 2,0 5,5 5,5 7,2 9,9 9 5 17 9 WSW 1025,6 35 0 0,0
10.12.2018 17:00:00 5,9 2,8 4,8 6,4 7,2 9,9 7 4 13 7 WSW 1025,2 70 0 0,0
10.12.2018 16:00:00 6,7 2,0 7,2 6,9 7,1 9,9 5 3 23 12 WNW 1025,0 70 0 0,0
10.12.2018 15:00:00 7,3 2,4 6,4 7,9 6,9 9,9 10 5 22 12 W 1024,7 28 24 0,0
10.12.2018 14:00:00 8,4 2,2 10,9 8,3 6,6 9,9 12 7 22 12 SW 1024,6 57 40 0,0
10.12.2018 13:00:00 7,0 2,7 7,7 6,8 6,5 9,9 15 8 21 11 SW 1025,7 70 0 0,0
10.12.2018 12:00:00 6,7 2,3 6,8 6,2 6,4 9,9 9 5 13 7 SW 1026,1 68 0 0,0
10.12.2018 11:00:00 6,1 3,0 6,1 5,3 6,4 9,9 5 3 15 8 WSW 1026,3 59 0 0,0
10.12.2018 10:00:00 5,5 2,9 4,7 4,7 6,5 9,9 9 5 19 10 SW 1025,7 52 0 0,0
10.12.2018 09:00:00 5,2 3,3 4,3 4,7 6,6 9,9 9 5 16 8 WSW 1025,1 54 0 0,0
10.12.2018 08:00:00 4,7 3,6 4,1 4,6 6,6 9,9 6 3 13 7 WSW 1024,8 38 0 0,2
10.12.2018 07:00:00 4,8 3,9 4,5 4,9 6,7 9,9 13 7 18 10 WSW 1024,3 11 0 0,0
10.12.2018 06:00:00 4,5 3,0 3,9 4,9 6,8 9,9 6 3 13 7 SSW 1023,7 58 0 2,0
10.12.2018 05:00:00 5,6 2,2 4,6 5,0 6,9 9,9 7 4 10 6 NW 1023,3 6 0 0,0
10.12.2018 04:00:00 6,4 1,2 5,2 4,9 7,0 9,9 7 4 22 12 SW 1022,9 70 0 0,0
10.12.2018 03:00:00 5,6 1,7 4,1 5,0 7,1 9,9 5 3 16 9 WSW 1022,9 70 0 0,0
10.12.2018 02:00:00 6,0 2,3 4,4 5,2 7,2 9,9 5 3 22 12 SW 1021,9 70 0 0,0
10.12.2018 01:00:00 7,1 1,7 5,0 5,4 7,3 9,9 15 8 28 15 W 1020,9 70 0 0,0
10.12.2018 00:00:00 6,8 3,4 5,3 5,3 7,4 9,9 11 6 26 14 W 1020,0 70 0 0,0
09.12.2018 23:00:00 6,2 5,0 5,0 5,7 7,5 9,9 16 9 25 14 WSW 1018,6 51 0 0,0
09.12.2018 22:00:00 7,1 4,9 6,0 6,2 7,6 9,9 18 10 27 15 WSW 1017,3 70 0 0,0
09.12.2018 21:00:00 7,3 5,5 6,5 6,7 7,6 10,0 16 9 31 17 SW 1016,3 63 0 0,1
09.12.2018 20:00:00 7,8 5,5 6,8 6,7 7,6 10,0 13 7 26 14 SSW 1015,0 70 0 0,0
09.12.2018 19:00:00 7,4 5,5 6,6 6,8 7,7 10,0 18 10 36 19 SW 1014,2 58 0 0,8
09.12.2018 18:00:00 7,3 5,9 6,7 6,8 7,7 10,0 21 11 38 20 SW 1012,6 2,6 0 1,4
09.12.2018 17:00:00 7,6 5,4 6,6 6,9 7,7 10,0 29 16 50 27 SW 1011,6 7 0 0,1
09.12.2018 16:00:00 7,6 5,5 6,8 7,0 7,7 10,0 21 11 51 27 SSW 1010,7 21 0 0,7
09.12.2018 15:00:00 8,0 4,8 7,5 7,2 7,7 10,0 30 16 55 30 SW 1009,9 38 0 0,0
09.12.2018 14:00:00 8,3 4,5 8,3 7,5 7,6 10,0 31 17 54 29 SW 1009,9 50 0 0,0
09.12.2018 13:00:00 8,6 4,5 7,3 7,3 7,6 10,0 34 18 50 27 SW 1010,2 46 0 0,1
09.12.2018 12:00:00 7,9 4,9 6,7 7,0 7,6 10,0 25 14 50 27 SW 1010,3 10 0 0,4
09.12.2018 11:00:00 8,7 3,9 8,4 6,9 7,6 10,0 31 17 48 26 SSW 1010,6 43 0 0,0
09.12.2018 10:00:00 8,4 3,6 6,9 6,5 7,7 10,0 28 15 40 22 SSW 1010,9 64 0 0,0
09.12.2018 09:00:00 7,9 4,2 6,6 6,5 7,7 10,0 17 9 38 21 SW 1010,5 70 0 0,0
09.12.2018 08:00:00 8,1 3,6 6,5 6,5 7,8 10,0 23 12 37 20 SW 1009,1 70 0 0,0
09.12.2018 07:00:00 7,4 4,7 5,8 6,4 7,9 10,0 10 5 23 12 SW 1008,2 70 0 0,0
09.12.2018 06:00:00 6,1 4,5 5,5 6,9 8,0 10,0 21 12 56 30 W 1008,2 70 0 3,4
09.12.2018 05:00:00 10,1 5,6 9,5 7,6 7,9 10,0 34 19 51 28 SW 1006,3 61 0 0,0
09.12.2018 04:00:00 10,2 5,7 9,3 7,7 7,9 10,0 19 10 49 26 WSW 1006,4 70 0 0,0
09.12.2018 03:00:00 10,2 6,5 8,7 7,6 7,9 9,9 31 17 52 28 SW 1006,7 70 0 0,0
09.12.2018 02:00:00 9,4 7,1 8,4 7,7 7,8 10,0 36 19 61 33 SSW 1007,3 52 0 0,0
09.12.2018 01:00:00 10,4 6,0 9,9 7,7 7,8 9,9 39 21 67 36 SW 1008,1 70 0 0,0
09.12.2018 00:00:00 10,4 5,7 9,8 7,5 7,7 9,9 38 20 71 39 SW 1009,3 70 0 0,0
08.12.2018 23:00:00 9,6 5,7 9,1 7,3 7,7 9,9 36 19 61 33 SW 1010,2 70 0 0,0
08.12.2018 22:00:00 9,4 5,0 8,9 7,1 7,6 9,9 31 17 64 34 SSW 1011,7 70 0 0,0
08.12.2018 21:00:00 9,4 4,7 8,0 6,9 7,6 9,9 34 18 58 31 SSW 1012,9 50 0 0,0
08.12.2018 20:00:00 8,8 4,4 8,2 6,6 7,7 9,9 37 20 56 30 SSW 1014,0 70 0 0,1
08.12.2018 19:00:00 8,4 4,3 6,8 6,6 7,7 9,9 33 18 61 33 SW 1015,1 16 0 0,0
08.12.2018 18:00:00 8,6 3,7 7,9 6,6 7,7 9,9 34 18 58 31 SSW 1015,9 68 0 0,0
08.12.2018 17:00:00 8,4 3,9 7,6 6,7 7,8 9,9 32 17 59 32 SSW 1016,6 68 0 0,0
08.12.2018 16:00:00 8,1 4,3 7,6 6,9 7,8 9,9 30 16 50 27 SSW 1016,9 66 0 0,1
08.12.2018 15:00:00 7,9 4,5 6,8 7,2 7,7 9,9 35 19 58 32 SW 1016,9 19 0 0,0
08.12.2018 14:00:00 8,3 4,0 8,4 7,6 7,6 9,9 34 19 63 34 SW 1016,8 66 2 0,0
08.12.2018 13:00:00 8,4 3,7 8,7 7,3 7,5 9,9 40 22 58 31 SW 1016,8 66 1 0,0
08.12.2018 12:00:00 7,6 3,3 7,5 6,8 7,5 9,9 27 15 52 28 SSW 1017,2 49 1 0,0
08.12.2018 11:00:00 7,6 2,7 7,1 6,5 7,4 9,9 28 15 50 27 SSW 1017,3 42 2 0,0
08.12.2018 10:00:00 7,5 2,1 7,2 5,8 7,5 9,9 29 16 47 26 SSW 1017,7 53 0 0,0
08.12.2018 09:00:00 7,1 2,1 6,5 5,3 7,6 9,9 32 18 47 25 SSW 1018,2 52 0 0,0
08.12.2018 08:00:00 6,4 2,0 5,6 5,2 7,8 9,9 29 16 47 25 SW 1018,5 54 0 0,0
08.12.2018 07:00:00 6,6 2,2 5,9 5,3 7,9 9,9 28 15 46 25 SW 1018,3 59 0 0,0
08.12.2018 06:00:00 6,3 2,3 5,4 5,4 8,1 9,9 23 12 38 21 SW 1018,0 61 0 0,0
08.12.2018 05:00:00 6,9 2,1 6,4 5,7 8,3 9,8 25 14 42 23 SSW 1017,9 64 0 0,0
08.12.2018 04:00:00 6,9 1,8 6,3 5,7 8,5 9,8 27 15 48 26 SSW 1017,7 70 0 0,0
08.12.2018 03:00:00 6,7 2,2 5,8 5,8 8,7 9,8 28 15 45 24 SSW 1017,8 70 0 0,0
08.12.2018 02:00:00 6,7 2,7 5,8 6,2 8,9 9,8 22 12 42 23 SW 1017,4 70 0 0,0
08.12.2018 01:00:00 6,8 3,7 5,7 6,6 9,1 9,8 17 9 37 20 SSW 1016,5 70 0 0,1
08.12.2018 00:00:00 6,7 2,4 5,3 7,1 9,3 9,8 14 7 48 26 WNW 1016,1 40 0 0,1
07.12.2018 23:00:00 8,3 3,2 6,8 7,9 9,4 9,8 12 6 38 20 W 1014,4 70 0 0,5
07.12.2018 22:00:00 10,2 5,0 9,1 8,7 9,5 9,8 14 8 51 28 W 1012,6 70 0 0,1
07.12.2018 21:00:00 11,4 7,2 9,3 9,2 9,5 9,8 39 21 74 40 WSW 1010,8 21 0 0,1
07.12.2018 20:00:00 11,8 6,5 11,1 9,0 9,6 9,8 34 18 55 30 SSW 1009,4 70 0 0,0
07.12.2018 19:00:00 11,5 6,2 10,7 9,0 9,7 9,8 31 17 51 27 SSW 1009,9 70 0 0,1
07.12.2018 18:00:00 11,6 6,1 10,8 9,1 9,7 9,8 23 12 41 22 SSW 1010,4 70 0 0,0
07.12.2018 17:00:00 11,4 6,7 10,8 9,4 9,8 9,8 22 12 47 26 SW 1011,8 70 0 0,0
07.12.2018 16:00:00 11,7 6,6 11,2 9,8 9,8 9,8 30 16 54 29 SW 1011,7 70 0 0,0
07.12.2018 15:00:00 11,4 6,8 10,9 10,0 9,8 9,8 23 12 49 26 SW 1013,2 68 0 0,0
07.12.2018 14:00:00 11,9 6,4 11,7 11,0 9,6 9,8 23 12 45 24 SSW 1014,4 70 11 0,0
07.12.2018 13:00:00 12,3 6,6 12,6 10,6 9,6 9,8 29 15 48 26 SSW 1015,9 56 7 0,0
07.12.2018 12:00:00 11,8 6,4 11,5 10,0 9,5 9,7 30 16 55 30 SSW 1016,8 70 0 0,0
07.12.2018 11:00:00 12,1 6,4 12,0 10,2 9,5 9,7 29 16 55 30 SSW 1017,7 70 0 0,0
07.12.2018 10:00:00 11,8 6,9 11,5 9,6 9,5 9,7 29 16 50 27 SSW 1018,6 70 0 0,0
07.12.2018 09:00:00 11,8 7,1 11,3 9,5 9,5 9,7 26 14 42 23 SSW 1019,2 70 0 0,0
07.12.2018 08:00:00 11,6 7,6 10,9 9,5 9,6 9,7 24 13 40 22 SSW 1019,4 70 0 0,0
07.12.2018 07:00:00 12,0 7,6 11,2 9,6 9,6 9,7 23 13 42 23 SSW 1019,9 70 0 0,0
07.12.2018 06:00:00 11,9 8,2 11,3 9,8 9,6 9,7 29 16 46 25 SSW 1020,2 70 0 0,0
07.12.2018 05:00:00 12,2 8,5 11,6 9,9 9,5 9,7 29 16 44 24 SSW 1020,4 70 0 0,0
07.12.2018 04:00:00 12,4 8,8 11,7 10,0 9,5 9,7 21 12 40 21 SSW 1021,0 70 0 0,0
07.12.2018 03:00:00 12,7 8,9 12,1 10,0 9,5 9,7 24 13 41 22 SSW 1021,6 70 0 0,0
07.12.2018 02:00:00 12,7 8,9 12,0 9,9 9,5 9,7 25 13 44 24 SSW 1021,7 70 0 0,0
07.12.2018 01:00:00 12,7 8,9 11,9 9,9 9,5 9,7 22 12 40 21 SSW 1022,3 70 0 0,0
07.12.2018 00:00:00 12,7 8,9 11,9 9,9 9,5 9,7 24 13 39 21 SSW 1022,6 70 0 0,0
06.12.2018 23:00:00 12,6 8,9 11,9 9,9 9,4 9,7 20 11 39 21 SSW 1022,7 70 0 0,0
06.12.2018 22:00:00 12,7 8,9 11,6 9,7 9,4 9,7 26 14 39 21 SSW 1022,7 70 0 0,0
06.12.2018 21:00:00 12,7 8,8 11,9 10,0 9,4 9,7 27 15 39 21 SSW 1022,8 70 0 0,0
06.12.2018 20:00:00 12,7 8,7 12,1 9,9 9,4 9,7 22 12 34 19 SSW 1023,0 70 0 0,0
06.12.2018 19:00:00 12,6 8,7 11,9 9,7 9,5 9,7 23 12 34 18 SSW 1023,2 70 0 0,0
06.12.2018 18:00:00 12,3 8,7 11,0 9,6 9,5 9,7 19 10 27 14 SSW 1022,6 70 0 0,0
06.12.2018 17:00:00 12,5 8,7 11,8 10,3 9,4 9,7 16 9 34 18 SSW 1022,5 70 0 0,0
06.12.2018 16:00:00 12,7 8,5 12,2 10,7 9,3 9,7 19 10 31 17 SSW 1022,1 70 0 0,0
06.12.2018 15:00:00 12,6 8,6 12,4 11,2 9,1 9,7 24 13 34 19 SW 1022,0 70 34 0,0
06.12.2018 14:00:00 12,7 8,9 13,0 11,3 8,9 9,7 21 12 33 18 SW 1022,0 70 0 0,0
06.12.2018 13:00:00 12,1 9,2 12,2 11,1 8,7 9,7 20 11 37 20 SSW 1022,1 70 0 0,0
06.12.2018 12:00:00 12,2 9,0 12,5 10,7 8,4 9,7 22 12 33 18 SW 1022,0 70 32 0,0
06.12.2018 11:00:00 11,9 8,9 12,9 9,8 8,3 9,7 16 9 24 13 S 1021,8 70 15 0,0
06.12.2018 10:00:00 11,0 9,2 10,7 9,0 8,2 9,7 18 10 31 17 SSW 1021,5 70 0 0,0
06.12.2018 09:00:00 11,0 8,3 10,5 8,6 8,1 9,7 20 11 35 19 SW 1021,2 51 0 0,0
06.12.2018 08:00:00 10,9 8,0 10,2 8,5 8,0 9,7 21 12 36 19 SW 1019,9 70 0 0,0
06.12.2018 07:00:00 10,6 7,9 9,4 8,4 7,9 9,7 23 12 38 20 SW 1019,5 61 0 0,0
06.12.2018 06:00:00 10,6 7,9 9,1 8,2 7,8 9,6 27 14 42 23 SSW 1019,4 38 0 0,8
06.12.2018 05:00:00 10,9 7,2 9,0 8,0 7,7 9,6 24 13 41 22 SSW 1019,2 17 0 0,1
06.12.2018 04:00:00 11,9 5,6 10,7 7,6 7,7 9,6 23 12 36 19 SSW 1018,8 70 0 0,0
06.12.2018 03:00:00 11,4 5,1 8,7 7,1 7,7 9,6 11 6 22 12 SW 1018,6 70 0 0,0
06.12.2018 02:00:00 7,1 6,5 6,7 6,8 7,7 9,6 0 0 9 5 N 1018,9 7 0 0,0
06.12.2018 01:00:00 6,9 6,3 6,1 6,8 7,8 9,6 3 1 10 5 W 1019,0 5 0 0,1
06.12.2018 00:00:00 7,1 6,5 6,6 6,8 7,8 9,6 4 2 6 3 W 1020,2 8 0 0,0

tt = temperature
td = dewpoint
tt 5cm = temperature 5cm
tt -5cm = temperature -5cm
tt -20cm = temperature -20cm
tt -100cm = temperature -100cm
ff = wind speed
fx = gusts
dd = wind direction
ppp = reduced air pressure
vv = visibility
sd = sunshine duration
rr = precipitation

Next stations